| time (UTC) | temp F | wind direction | speed MPH | gust MPH | rain 1hr in | rain 24hr in | rain mn in | humidity % | barometer mb |
| 20260507012505 | 40 | 0 | 1.0 | 3.0 | 0.01 | 0.12 | 0.11 | 70 | 1018.9 |
| 20260507011505 | 40 | 0 | 1.0 | 3.0 | 0.01 | 0.12 | 0.11 | 70 | 1019.0 |
| 20260507011006 | 40 | 0 | 1.0 | 3.0 | 0.02 | 0.12 | 0.11 | 69 | 1019.1 |
| 20260507010505 | 41 | 0 | 1.0 | 6.0 | 0.02 | 0.12 | 0.11 | 70 | 1019.1 |
| 20260507010005 | 40 | 0 | 2.0 | 3.0 | 0.02 | 0.12 | 0.11 | 70 | 1019.1 |
| 20260507005505 | 41 | 0 | 0.0 | 2.0 | 0.02 | 0.12 | 0.11 | 70 | 1019.2 |
| 20260507005005 | 41 | 0 | 1.0 | 3.0 | 0.01 | 0.11 | 0.10 | 70 | 1019.3 |
| 20260507004006 | 41 | 0 | 0.0 | 5.0 | 0.02 | 0.11 | 0.10 | 69 | 1019.3 |
| 20260507003005 | 41 | 0 | 2.0 | 3.0 | 0.02 | 0.11 | 0.10 | 70 | 1019.5 |
| 20260507002005 | 40 | 0 | 0.0 | 2.0 | 0.02 | 0.11 | 0.10 | 71 | 1019.4 |
| 20260507001505 | 40 | 0 | 2.0 | 6.0 | 0.02 | 0.11 | 0.10 | 71 | 1019.4 |
| 20260507001005 | 40 | 0 | 0.0 | 3.0 | 0.02 | 0.10 | 0.09 | 70 | 1019.4 |
| 20260507000505 | 40 | 0 | 3.0 | 6.0 | 0.02 | 0.10 | 0.09 | 70 | 1019.4 |
| 20260507000006 | 40 | 0 | 2.0 | 3.0 | 0.02 | 0.10 | 0.09 | 72 | 1019.6 |
| 20260506235505 | 39 | 0 | 1.0 | 3.0 | 0.02 | 0.10 | 0.09 | 72 | 1019.6 |
| 20260506234505 | 39 | 0 | 1.0 | 3.0 | 0.02 | 0.09 | 0.08 | 72 | 1019.6 |
| 20260506234005 | 39 | 0 | 2.0 | 3.0 | 0.02 | 0.09 | 0.08 | 72 | 1019.5 |
| 20260506233505 | 39 | 0 | 2.0 | 8.0 | 0.02 | 0.09 | 0.08 | 72 | 1019.6 |
| 20260506233005 | 39 | 0 | 3.0 | 5.0 | 0.02 | 0.09 | 0.08 | 72 | 1019.6 |
| 20260506232505 | 39 | 0 | 0.0 | 2.0 | 0.02 | 0.09 | 0.08 | 72 | 1019.5 |
| 20260506232005 | 39 | 0 | 2.0 | 5.0 | 0.03 | 0.09 | 0.08 | 72 | 1019.6 |
| 20260506231505 | 39 | 0 | 2.0 | 3.0 | 0.03 | 0.09 | 0.08 | 73 | 1019.6 |
| 20260506231005 | 38 | 0 | 2.0 | 3.0 | 0.02 | 0.09 | 0.07 | 72 | 1019.6 |
| 20260506230504 | 38 | 0 | 1.0 | 3.0 | 0.02 | 0.09 | 0.07 | 73 | 1019.6 |
| 20260506230006 | 38 | 0 | 1.0 | 3.0 | 0.03 | 0.10 | 0.07 | 74 | 1019.8 |
| 20260506225505 | 38 | 0 | 2.0 | 5.0 | 0.03 | 0.10 | 0.07 | 75 | 1019.7 |
| 20260506225005 | 38 | 0 | 1.0 | 5.0 | 0.02 | 0.09 | 0.06 | 74 | 1019.8 |
| 20260506224505 | 38 | 0 | 2.0 | 6.0 | 0.02 | 0.09 | 0.06 | 72 | 1019.8 |
| 20260506224005 | 38 | 0 | 2.0 | 5.0 | 0.02 | 0.09 | 0.06 | 72 | 1019.9 |
| 20260506223505 | 39 | 0 | 2.0 | 6.0 | 0.03 | 0.09 | 0.06 | 71 | 1020.0 |
| 20260506223005 | 39 | 0 | 1.0 | 3.0 | 0.03 | 0.09 | 0.06 | 72 | 1020.1 |
| 20260506222505 | 39 | 0 | 2.0 | 3.0 | 0.03 | 0.09 | 0.06 | 73 | 1020.1 |
| 20260506222005 | 39 | 0 | 0.0 | 2.0 | 0.02 | 0.08 | 0.05 | 75 | 1020.3 |
| 20260506221505 | 39 | 0 | 0.0 | 3.0 | 0.02 | 0.08 | 0.05 | 74 | 1020.3 |
| 20260506221005 | 39 | 0 | 1.0 | 3.0 | 0.02 | 0.09 | 0.05 | 74 | 1020.4 |
| 20260506220505 | 39 | 0 | 1.0 | 3.0 | 0.02 | 0.09 | 0.05 | 73 | 1020.5 |
| 20260506220005 | 39 | 0 | 1.0 | 3.0 | 0.01 | 0.08 | 0.04 | 73 | 1020.5 |
| 20260506215505 | 39 | 0 | 2.0 | 5.0 | 0.01 | 0.08 | 0.04 | 74 | 1020.6 |
| 20260506215006 | 39 | 0 | 0.0 | 3.0 | 0.01 | 0.08 | 0.04 | 75 | 1020.6 |
| 20260506214505 | 39 | 0 | 1.0 | 3.0 | 0.01 | 0.08 | 0.04 | 77 | 1020.6 |
| 20260506214005 | 39 | 0 | 0.0 | 1.0 | 0.01 | 0.08 | 0.04 | 77 | 1020.6 |
| 20260506213505 | 39 | 0 | 0.0 | 5.0 | 0.01 | 0.07 | 0.03 | 77 | 1020.6 |
| 20260506213005 | 38 | 0 | 1.0 | 3.0 | 0.01 | 0.07 | 0.03 | 76 | 1020.6 |
| 20260506212505 | 38 | 0 | 0.0 | 3.0 | 0.01 | 0.07 | 0.03 | 77 | 1020.7 |
| 20260506212005 | 38 | 0 | 0.0 | 1.0 | 0.01 | 0.07 | 0.03 | 77 | 1020.7 |
| 20260506211504 | 38 | 0 | 0.0 | 1.0 | 0.01 | 0.07 | 0.03 | 77 | 1020.7 |
| 20260506211005 | 38 | 0 | 1.0 | 3.0 | 0.01 | 0.07 | 0.03 | 78 | 1020.8 |
| 20260506210505 | 38 | 0 | 0.0 | 1.0 | 0.01 | 0.07 | 0.03 | 79 | 1020.8 |
| 20260506210005 | 37 | 0 | 1.0 | 2.0 | 0.01 | 0.07 | 0.03 | 80 | 1020.9 |
| 20260506205505 | 37 | 0 | 0.0 | 1.0 | 0.01 | 0.07 | 0.03 | 80 | 1020.9 |
| 20260506205005 | 37 | 0 | 0.0 | 3.0 | 0.01 | 0.07 | 0.03 | 80 | 1021.0 |
| 20260506204505 | 37 | 0 | 1.0 | 3.0 | 0.01 | 0.07 | 0.03 | 78 | 1021.0 |
| 20260506204005 | 37 | 0 | 0.0 | 1.0 | 0.01 | 0.07 | 0.03 | 78 | 1021.2 |
| 20260506203505 | 38 | 0 | 0.0 | 2.0 | 0.00 | 0.06 | 0.02 | 78 | 1021.4 |
| 20260506203005 | 38 | 0 | 0.0 | 2.0 | 0.00 | 0.06 | 0.02 | 78 | 1021.5 |
| 20260506202005 | 38 | 0 | 0.0 | 1.0 | 0.00 | 0.06 | 0.02 | 77 | 1021.4 |
| 20260506201505 | 38 | 0 | 0.0 | 1.0 | 0.00 | 0.07 | 0.02 | 79 | 1021.4 |
| 20260506201005 | 38 | 0 | 1.0 | 3.0 | 0.00 | 0.07 | 0.02 | 80 | 1021.4 |
| 20260506200005 | 38 | 0 | 0.0 | 1.0 | 0.00 | 0.07 | 0.02 | 82 | 1021.3 |
| 20260506195005 | 37 | 0 | 0.0 | 1.0 | 0.00 | 0.07 | 0.02 | 85 | 1021.4 |
| 20260506194505 | 37 | 0 | 0.0 | 1.0 | 0.00 | 0.07 | 0.02 | 87 | 1021.4 |
| 20260506194005 | 37 | 0 | 0.0 | 1.0 | 0.00 | 0.07 | 0.02 | 89 | 1021.6 |
| 20260506193505 | 36 | 0 | 0.0 | 2.0 | 0.00 | 0.07 | 0.02 | 89 | 1021.6 |
| 20260506193005 | 36 | 0 | 0.0 | 0.0 | 0.00 | 0.07 | 0.02 | 90 | 1021.7 |
| 20260506192005 | 35 | 0 | 0.0 | 1.0 | 0.00 | 0.07 | 0.02 | 92 | 1021.9 |
| 20260506191505 | 35 | 0 | 0.0 | 2.0 | 0.00 | 0.07 | 0.02 | 92 | 1021.9 |
| 20260506190505 | 34 | 0 | 0.0 | 2.0 | 0.01 | 0.08 | 0.02 | 92 | 1022.1 |
| 20260506190006 | 34 | 0 | 0.0 | 3.0 | 0.01 | 0.08 | 0.02 | 93 | 1022.1 |
| 20260506185504 | 33 | 0 | 0.0 | 3.0 | 0.01 | 0.08 | 0.02 | 93 | 1022.2 |
| 20260506185005 | 33 | 0 | 1.0 | 3.0 | 0.01 | 0.08 | 0.02 | 93 | 1022.3 |
| 20260506184504 | 32 | 0 | 1.0 | 3.0 | 0.01 | 0.08 | 0.02 | 93 | 1022.2 |
| 20260506184005 | 32 | 0 | 0.0 | 3.0 | 0.01 | 0.08 | 0.02 | 93 | 1022.3 |
| 20260506183505 | 32 | 0 | 0.0 | 1.0 | 0.01 | 0.08 | 0.02 | 93 | 1022.4 |
| 20260506183006 | 32 | 0 | 1.0 | 5.0 | 0.01 | 0.08 | 0.02 | 93 | 1022.5 |
| 20260506182505 | 32 | 0 | 0.0 | 3.0 | 0.01 | 0.08 | 0.02 | 93 | 1022.5 |
| 20260506182004 | 32 | 0 | 0.0 | 3.0 | 0.01 | 0.08 | 0.02 | 93 | 1022.5 |
| 20260506181504 | 32 | 0 | 1.0 | 5.0 | 0.01 | 0.08 | 0.02 | 93 | 1022.5 |
| 20260506181005 | 32 | 0 | 0.0 | 2.0 | 0.00 | 0.08 | 0.01 | 93 | 1022.4 |
| 20260506180504 | 32 | 0 | 0.0 | 3.0 | 0.00 | 0.08 | 0.01 | 94 | 1022.4 |
| 20260506180006 | 32 | 0 | 2.0 | 5.0 | 0.00 | 0.08 | 0.01 | 94 | 1022.4 |
| 20260506175504 | 32 | 0 | 2.0 | 6.0 | 0.00 | 0.08 | 0.01 | 94 | 1022.4 |
| 20260506175004 | 32 | 0 | 1.0 | 3.0 | 0.00 | 0.08 | 0.01 | 94 | 1022.2 |
| 20260506174505 | 32 | 0 | 2.0 | 8.0 | 0.00 | 0.08 | 0.01 | 94 | 1022.2 |
| 20260506174005 | 32 | 0 | 5.0 | 12.0 | 0.00 | 0.08 | 0.01 | 94 | 1022.3 |
| 20260506173004 | 32 | 0 | 3.0 | 8.0 | 0.00 | 0.09 | 0.01 | 94 | 1022.2 |
| 20260506172505 | 32 | 0 | 3.0 | 10.0 | 0.00 | 0.09 | 0.01 | 94 | 1022.2 |
| 20260506171004 | 32 | 0 | 1.0 | 6.0 | 0.00 | 0.09 | 0.01 | 95 | 1022.0 |
| 20260506170005 | 32 | 0 | 3.0 | 14.0 | 0.00 | 0.09 | 0.01 | 95 | 1021.7 |
| 20260506165005 | 33 | 0 | 2.0 | 5.0 | 0.00 | 0.10 | 0.01 | 95 | 1021.6 |
| 20260506164005 | 33 | 0 | 2.0 | 6.0 | 0.00 | 0.10 | 0.01 | 95 | 1021.3 |
| 20260506163504 | 33 | 0 | 2.0 | 8.0 | 0.00 | 0.11 | 0.01 | 95 | 1021.2 |
| 20260506163005 | 32 | 0 | 2.0 | 6.0 | 0.00 | 0.11 | 0.01 | 95 | 1021.1 |
| 20260506162505 | 32 | 0 | 2.0 | 5.0 | 0.00 | 0.11 | 0.01 | 95 | 1020.9 |
| 20260506162005 | 32 | 0 | 2.0 | 9.0 | 0.00 | 0.11 | 0.01 | 96 | 1020.9 |
| 20260506161504 | 32 | 0 | 3.0 | 8.0 | 0.00 | 0.11 | 0.01 | 95 | 1020.9 |
| 20260506161005 | 32 | 0 | 2.0 | 5.0 | 0.00 | 0.12 | 0.01 | 96 | 1021.0 |
| 20260506160505 | 32 | 0 | 1.0 | 5.0 | 0.00 | 0.12 | 0.01 | 96 | 1021.0 |
| 20260506160005 | 32 | 0 | 1.0 | 3.0 | 0.00 | 0.12 | 0.01 | 96 | 1020.9 |
| 20260506155504 | 32 | 0 | 0.0 | 0.0 | 0.00 | 0.13 | 0.01 | 95 | 1020.7 |
| 20260506155005 | 32 | 0 | 0.0 | 0.0 | 0.00 | 0.13 | 0.01 | 95 | 1020.8 |
| 20260506154504 | 32 | 0 | 0.0 | 0.0 | 0.00 | 0.13 | 0.01 | 96 | 1020.9 |
| 20260506154004 | 32 | 0 | 0.0 | 0.0 | 0.00 | 0.13 | 0.01 | 96 | 1021.0 |
| 20260506153504 | 31 | 0 | 0.0 | 0.0 | 0.00 | 0.14 | 0.01 | 96 | 1020.9 |
| 20260506153005 | 31 | 0 | 0.0 | 0.0 | 0.00 | 0.14 | 0.01 | 96 | 1020.8 |
| 20260506152504 | 31 | 0 | 0.0 | 0.0 | 0.00 | 0.14 | 0.01 | 96 | 1020.8 |
| 20260506151505 | 31 | 0 | 0.0 | 0.0 | 0.00 | 0.15 | 0.01 | 96 | 1020.6 |
| 20260506151005 | 31 | 0 | 0.0 | 0.0 | 0.00 | 0.15 | 0.01 | 96 | 1020.5 |
| 20260506150505 | 31 | 0 | 0.0 | 0.0 | 0.00 | 0.15 | 0.01 | 96 | 1020.4 |
| 20260506145505 | 31 | 0 | 0.0 | 0.0 | 0.00 | 0.15 | 0.01 | 96 | 1020.4 |
| 20260506145005 | 31 | 0 | 0.0 | 0.0 | 0.00 | 0.15 | 0.01 | 96 | 1020.3 |
| 20260506144505 | 31 | 0 | 0.0 | 1.0 | 0.00 | 0.15 | 0.01 | 96 | 1020.2 |
| 20260506142505 | 31 | 0 | 0.0 | 0.0 | 0.00 | 0.16 | 0.01 | 96 | 1020.0 |
| 20260506142004 | 31 | 0 | 0.0 | 0.0 | 0.00 | 0.16 | 0.01 | 96 | 1019.8 |
| 20260506141504 | 31 | 0 | 0.0 | 0.0 | 0.00 | 0.16 | 0.01 | 96 | 1019.9 |
| 20260506141004 | 31 | 0 | 0.0 | 0.0 | 0.00 | 0.16 | 0.01 | 96 | 1019.8 |
| 20260506140005 | 31 | 0 | 0.0 | 0.0 | 0.00 | 0.16 | 0.01 | 96 | 1019.7 |
| 20260506135004 | 31 | 0 | 0.0 | 0.0 | 0.00 | 0.16 | 0.01 | 96 | 1019.6 |
| 20260506134505 | 31 | 0 | 0.0 | 0.0 | 0.00 | 0.16 | 0.01 | 96 | 1019.6 |
| 20260506134005 | 31 | 0 | 0.0 | 0.0 | 0.00 | 0.16 | 0.01 | 96 | 1019.6 |
| 20260506133505 | 31 | 0 | 0.0 | 0.0 | 0.00 | 0.16 | 0.01 | 96 | 1019.4 |
| 20260506133005 | 31 | 0 | 0.0 | 0.0 | 0.00 | 0.16 | 0.01 | 96 | 1019.4 |
| 20260506132505 | 31 | 0 | 0.0 | 0.0 | 0.00 | 0.16 | 0.01 | 96 | 1019.4 |
| 20260506132005 | 31 | 0 | 0.0 | 0.0 | 0.00 | 0.16 | 0.01 | 96 | 1019.3 |
| 20260506131505 | 31 | 0 | 0.0 | 0.0 | 0.00 | 0.16 | 0.01 | 96 | 1019.3 |
| 20260506131005 | 31 | 0 | 0.0 | 0.0 | 0.00 | 0.16 | 0.01 | 96 | 1019.1 |
| 20260506130505 | 31 | 0 | 0.0 | 0.0 | 0.00 | 0.16 | 0.01 | 96 | 1018.9 |
| 20260506130005 | 30 | 0 | 0.0 | 0.0 | 0.00 | 0.16 | 0.01 | 96 | 1018.8 |
| 20260506125005 | 30 | 0 | 0.0 | 0.0 | 0.00 | 0.16 | 0.01 | 96 | 1018.5 |
| 20260506124505 | 30 | 0 | 0.0 | 0.0 | 0.00 | 0.16 | 0.01 | 96 | 1018.5 |
| 20260506123005 | 30 | 0 | 0.0 | 0.0 | 0.01 | 0.16 | 0.01 | 96 | 1018.4 |
| 20260506122505 | 30 | 0 | 0.0 | 0.0 | 0.01 | 0.16 | 0.01 | 96 | 1018.4 |
| 20260506122004 | 30 | 0 | 0.0 | 0.0 | 0.01 | 0.16 | 0.01 | 96 | 1018.4 |
| 20260506121506 | 30 | 0 | 0.0 | 0.0 | 0.01 | 0.16 | 0.01 | 96 | 1018.4 |
| 20260506121005 | 30 | 0 | 0.0 | 0.0 | 0.01 | 0.16 | 0.01 | 96 | 1018.4 |
| 20260506120504 | 30 | 0 | 0.0 | 0.0 | 0.01 | 0.16 | 0.01 | 96 | 1018.4 |
| 20260506115504 | 30 | 0 | 0.0 | 0.0 | 0.01 | 0.16 | 0.01 | 96 | 1018.2 |
| 20260506115005 | 30 | 0 | 0.0 | 0.0 | 0.01 | 0.16 | 0.01 | 96 | 1018.2 |
| 20260506114505 | 30 | 0 | 0.0 | 0.0 | 0.01 | 0.16 | 0.01 | 96 | 1018.1 |
| 20260506114005 | 30 | 0 | 0.0 | 0.0 | 0.01 | 0.16 | 0.01 | 96 | 1018.1 |
| 20260506113504 | 30 | 0 | 0.0 | 0.0 | 0.00 | 0.15 | 0.00 | 95 | 1018.2 |
| 20260506113004 | 30 | 0 | 0.0 | 0.0 | 0.00 | 0.15 | 0.00 | 96 | 1018.1 |
| 20260506112504 | 30 | 0 | 0.0 | 0.0 | 0.00 | 0.15 | 0.00 | 95 | 1018.1 |
| 20260506112004 | 30 | 0 | 0.0 | 0.0 | 0.00 | 0.15 | 0.00 | 95 | 1017.9 |
| 20260506111505 | 30 | 0 | 0.0 | 0.0 | 0.00 | 0.15 | 0.00 | 95 | 1017.7 |
| 20260506111004 | 30 | 0 | 0.0 | 0.0 | 0.00 | 0.15 | 0.00 | 95 | 1017.6 |
| 20260506110505 | 30 | 0 | 0.0 | 0.0 | 0.00 | 0.15 | 0.00 | 95 | 1017.6 |
| 20260506110005 | 30 | 0 | 0.0 | 0.0 | 0.00 | 0.15 | 0.00 | 95 | 1017.7 |
| 20260506105005 | 30 | 0 | 0.0 | 0.0 | 0.00 | 0.15 | 0.00 | 96 | 1017.6 |
| 20260506104004 | 31 | 0 | 0.0 | 0.0 | 0.00 | 0.15 | 0.00 | 96 | 1017.5 |
| 20260506103504 | 31 | 0 | 0.0 | 0.0 | 0.00 | 0.15 | 0.00 | 96 | 1017.6 |
| 20260506103004 | 31 | 0 | 0.0 | 0.0 | 0.00 | 0.15 | 0.00 | 96 | 1017.6 |
| 20260506102504 | 31 | 0 | 0.0 | 0.0 | 0.00 | 0.15 | 0.00 | 96 | 1017.6 |
| 20260506102005 | 31 | 0 | 0.0 | 0.0 | 0.00 | 0.15 | 0.00 | 96 | 1017.6 |
| 20260506101504 | 31 | 0 | 0.0 | 0.0 | 0.00 | 0.15 | 0.00 | 96 | 1017.5 |
| 20260506101005 | 31 | 0 | 0.0 | 0.0 | 0.00 | 0.15 | 0.00 | 96 | 1017.6 |
| 20260506100504 | 31 | 0 | 0.0 | 0.0 | 0.00 | 0.15 | 0.00 | 96 | 1017.7 |
| 20260506100005 | 31 | 0 | 0.0 | 0.0 | 0.00 | 0.15 | 0.00 | 96 | 1017.5 |
| 20260506095505 | 31 | 0 | 0.0 | 0.0 | 0.00 | 0.15 | 0.00 | 96 | 1017.5 |
| 20260506094505 | 31 | 0 | 0.0 | 0.0 | 0.00 | 0.16 | 0.00 | 95 | 1017.5 |
| 20260506094005 | 31 | 0 | 0.0 | 0.0 | 0.00 | 0.16 | 0.00 | 95 | 1017.3 |
| 20260506093504 | 31 | 0 | 0.0 | 0.0 | 0.00 | 0.16 | 0.00 | 95 | 1017.2 |
| 20260506093005 | 31 | 0 | 0.0 | 0.0 | 0.00 | 0.16 | 0.00 | 95 | 1017.2 |
| 20260506092004 | 31 | 0 | 0.0 | 0.0 | 0.00 | 0.16 | 0.00 | 95 | 1017.1 |
| 20260506091005 | 31 | 0 | 0.0 | 0.0 | 0.00 | 0.16 | 0.00 | 95 | 1016.9 |
| 20260506090504 | 31 | 0 | 0.0 | 0.0 | 0.00 | 0.16 | 0.00 | 95 | 1016.8 |
| 20260506090005 | 31 | 0 | 0.0 | 0.0 | 0.00 | 0.16 | 0.00 | 95 | 1016.9 |
| 20260506085505 | 31 | 0 | 0.0 | 0.0 | 0.00 | 0.16 | 0.00 | 95 | 1016.9 |
| 20260506085005 | 31 | 0 | 0.0 | 0.0 | 0.00 | 0.16 | 0.00 | 95 | 1016.9 |
| 20260506084505 | 31 | 0 | 0.0 | 0.0 | 0.00 | 0.16 | 0.00 | 95 | 1016.9 |
| 20260506084005 | 31 | 0 | 0.0 | 0.0 | 0.00 | 0.16 | 0.00 | 95 | 1016.8 |
| 20260506083004 | 31 | 0 | 0.0 | 0.0 | 0.00 | 0.16 | 0.00 | 95 | 1016.7 |
| 20260506082504 | 31 | 0 | 0.0 | 0.0 | 0.00 | 0.16 | 0.00 | 95 | 1016.8 |
| 20260506082004 | 31 | 0 | 0.0 | 0.0 | 0.00 | 0.17 | 0.00 | 95 | 1017.0 |
| 20260506081504 | 31 | 0 | 0.0 | 0.0 | 0.00 | 0.17 | 0.00 | 95 | 1016.9 |
| 20260506081005 | 31 | 0 | 0.0 | 0.0 | 0.00 | 0.18 | 0.00 | 95 | 1017.0 |
| 20260506080504 | 31 | 0 | 0.0 | 0.0 | 0.00 | 0.18 | 0.00 | 95 | 1017.0 |
| 20260506072504 | 31 | 0 | 0.0 | 0.0 | 0.00 | 0.24 | 0.00 | 95 | 1016.6 |
| 20260506072004 | 31 | 0 | 0.0 | 0.0 | 0.00 | 0.25 | 0.00 | 95 | 1016.7 |
| 20260506071505 | 31 | 0 | 0.0 | 0.0 | 0.00 | 0.26 | 0.00 | 95 | 1016.6 |
| 20260506071005 | 31 | 0 | 0.0 | 0.0 | 0.00 | 0.26 | 0.00 | 95 | 1016.7 |
| 20260506070504 | 31 | 0 | 0.0 | 0.0 | 0.00 | 0.26 | 0.00 | 95 | 1016.7 |
| 20260506062004 | 31 | 0 | 0.0 | 0.0 | 0.00 | 0.26 | 0.00 | 95 | 1016.1 |
| 20260506061504 | 31 | 0 | 0.0 | 0.0 | 0.00 | 0.26 | 0.00 | 95 | 1016.0 |
| 20260506061004 | 31 | 0 | 0.0 | 0.0 | 0.00 | 0.26 | 0.00 | 95 | 1015.8 |
| 20260506060504 | 31 | 0 | 0.0 | 0.0 | 0.00 | 0.26 | 0.00 | 95 | 1015.7 |
| 20260506051004 | 31 | 0 | 0.0 | 0.0 | 0.01 | 0.26 | 0.15 | 95 | 1015.4 |
| 20260506044504 | 31 | 0 | 0.0 | 0.0 | 0.01 | 0.26 | 0.15 | 95 | 1015.1 |
| 20260506044005 | 31 | 0 | 0.0 | 0.0 | 0.01 | 0.26 | 0.15 | 95 | 1015.2 |
| 20260506043505 | 31 | 0 | 0.0 | 0.0 | 0.01 | 0.26 | 0.15 | 95 | 1015.2 |
| 20260506043004 | 31 | 0 | 0.0 | 0.0 | 0.01 | 0.26 | 0.15 | 95 | 1015.2 |
| 20260506042505 | 31 | 0 | 0.0 | 0.0 | 0.01 | 0.26 | 0.15 | 95 | 1015.2 |
| 20260506041504 | 31 | 0 | 0.0 | 0.0 | 0.01 | 0.26 | 0.15 | 95 | 1015.2 |
| 20260506041004 | 31 | 0 | 0.0 | 0.0 | 0.00 | 0.25 | 0.14 | 95 | 1015.0 |
| 20260506040504 | 31 | 0 | 0.0 | 0.0 | 0.00 | 0.25 | 0.14 | 95 | 1014.9 |
| 20260506040004 | 31 | 0 | 0.0 | 0.0 | 0.00 | 0.25 | 0.14 | 95 | 1015.2 |
| 20260506035504 | 31 | 0 | 0.0 | 0.0 | 0.00 | 0.25 | 0.14 | 95 | 1015.1 |
| 20260506035005 | 31 | 0 | 0.0 | 0.0 | 0.00 | 0.25 | 0.14 | 94 | 1014.8 |
| 20260506034004 | 31 | 0 | 0.0 | 0.0 | 0.00 | 0.25 | 0.14 | 94 | 1014.8 |
| 20260506033504 | 31 | 0 | 0.0 | 0.0 | 0.00 | 0.25 | 0.14 | 94 | 1014.7 |
| 20260506033005 | 31 | 0 | 0.0 | 0.0 | 0.00 | 0.25 | 0.14 | 95 | 1014.6 |
| 20260506032504 | 31 | 0 | 0.0 | 0.0 | 0.00 | 0.25 | 0.14 | 95 | 1014.5 |
| 20260506032004 | 31 | 0 | 0.0 | 0.0 | 0.00 | 0.25 | 0.14 | 94 | 1014.3 |
| 20260506031005 | 31 | 0 | 0.0 | 0.0 | 0.00 | 0.25 | 0.14 | 94 | 1014.1 |
| 20260506030503 | 31 | 0 | 0.0 | 0.0 | 0.00 | 0.25 | 0.14 | 94 | 1013.9 |
| 20260506030004 | 31 | 0 | 0.0 | 0.0 | 0.00 | 0.25 | 0.14 | 94 | 1013.9 |
| 20260506025504 | 31 | 0 | 0.0 | 0.0 | 0.00 | 0.25 | 0.14 | 94 | 1013.6 |
| 20260506025005 | 31 | 0 | 0.0 | 0.0 | 0.00 | 0.25 | 0.14 | 94 | 1013.5 |
| 20260506024504 | 31 | 0 | 0.0 | 0.0 | 0.00 | 0.25 | 0.14 | 94 | 1013.5 |
| 20260506024005 | 31 | 0 | 0.0 | 0.0 | 0.00 | 0.25 | 0.14 | 94 | 1013.4 |
| 20260506023504 | 31 | 0 | 0.0 | 0.0 | 0.00 | 0.25 | 0.14 | 94 | 1013.3 |
| 20260506023004 | 31 | 0 | 0.0 | 1.0 | 0.00 | 0.25 | 0.14 | 94 | 1013.2 |
| 20260506022504 | 31 | 0 | 0.0 | 0.0 | 0.00 | 0.25 | 0.14 | 94 | 1013.0 |
| 20260506022004 | 31 | 0 | 0.0 | 0.0 | 0.00 | 0.25 | 0.14 | 94 | 1012.7 |
| 20260506021504 | 31 | 0 | 0.0 | 0.0 | 0.00 | 0.25 | 0.14 | 94 | 1012.6 |
| 20260506021004 | 31 | 0 | 0.0 | 0.0 | 0.00 | 0.25 | 0.14 | 94 | 1012.6 |
| 20260506020504 | 31 | 0 | 0.0 | 0.0 | 0.00 | 0.25 | 0.14 | 94 | 1012.5 |
| 20260506015504 | 31 | 0 | 0.0 | 0.0 | 0.00 | 0.25 | 0.14 | 94 | 1012.3 |
| 20260506015004 | 31 | 0 | 0.0 | 0.0 | 0.00 | 0.25 | 0.14 | 94 | 1012.2 |
| 20260506014504 | 31 | 0 | 0.0 | 0.0 | 0.00 | 0.25 | 0.14 | 94 | 1012.1 |
| 20260506014005 | 31 | 0 | 0.0 | 0.0 | 0.00 | 0.25 | 0.14 | 94 | 1012.1 |
| 20260506013504 | 31 | 0 | 0.0 | 0.0 | 0.00 | 0.25 | 0.14 | 94 | 1012.2 |
| 20260506013004 | 31 | 0 | 0.0 | 0.0 | 0.00 | 0.25 | 0.14 | 94 | 1012.0 |